Location: Bowman Observatory
(41.0326°N, 73.6210°W)
Time: 01:34:35
(UTC-05:00)

Cosmos 2298 Rocket - Visible Passes

Search period start: 21 November 2017 00:00
Search period end: 01 December 2017 00:00
Orbit: 776 x 784 km, 74.0° (Epoch: 20 November)

Date Brightness Start Highest point End Pass type
(mag) Time Alt. Az. Time Alt. Az. Time Alt. Az.
22 Nov 5.9 06:22:03 10° N 06:26:40 29° ENE 06:31:14 10° ESE visible
23 Nov 6.4 05:49:08 10° N 05:52:57 20° ENE 05:56:45 10° ESE visible
24 Nov 6.7 05:16:43 10° NNE 05:19:09 13° NE 05:21:35 10° E visible
26 Nov 5.5 05:50:16 10° N 05:55:12 37° ENE 06:00:04 10° SE visible
27 Nov 6.1 05:17:13 10° N 05:21:33 25° ENE 05:25:50 10° ESE visible
28 Nov 6.6 04:44:26 10° NNE 04:47:47 17° NE 04:51:07 10° E visible
28 Nov 4.1 06:25:22 10° NNW 06:30:39 69° WSW 06:35:54 10° S visible
29 Nov 6.8 04:12:34 10° NE 04:13:56 11° NE 04:15:19 10° ENE visible
29 Nov 4.2 05:51:53 10° NNW 05:57:13 76° ENE 06:02:29 10° SSE visible
30 Nov 4.9 05:18:33 10° N 05:23:41 48° ENE 05:28:47 10° SE visible
